Lid_Strength_Index
11 11 10 10 9 9 8 8 7 7 7 7 7 7 7 7 7 7 6 5 4 3
11 11 11 11 10 10 9 8 8 8 8 8 8 8 8 8 8 7 7 6 6 5
11 11 11 10 10 10 10 10 9 9 9 8 8 8 8 8 8 8 7 7 7 5
12 11 11 11 11 11 10 9 9 9 8 8 8 8 8 8 8 8 7 7 7 6
12 12 11 11 11 10 10 10 10 9 9 9 8 8 7 7 7 7 7 7 7 7
12 12 13 12 12 11 11 11 10 9 9 8 8 8 8 8 8 7 8 7 7 7
14 14 14 13 13 12 12 11 10 10 10 10 9 9 9 9 8 8 8 8 8 7
14 14 14 14 13 12 12 12 12 12 11 11 10 10 10 10 10 10 9 9 9 8
14 14 14 14 14 14 14 13 13 13 12 12 11 9 9 9 10 10 10 10 10 9
14 15 14 14 14 15 15 14 14 14 13 13 12 10 9 9 10 10 10 10 10 10
15 16 15 15 15 15 15 15 15 14 14 14 13 11 10 10 11 11 11 11 10 10
16 16 16 17 16 16 16 16 15 15 15 15 14 12 11 11 12 12 12 11 11 11
17 17 18 17 17 16 16 16 16 15 15 15 15 13 12 12 12 13 12 12 11 10
18 18 18 18 18 18 18 17 17 17 16 15 15 14 13 12 13 13 12 12 11 10